Regional Weather Roundup
Issued by NWS Nashville, TN

Home | Current Version | Previous Version | Text Only | Print | Product List | Glossary On
Versions: 1 2 3 4 5 6 7 8 9 10 11 12 13 14 15 16 17 18 19 20 21 22 23 24 25 26 27 28 29 30 31 32 33 34 35 36 37 38 39 40 41 42 43 44 45 46 47 48 49 50
000
ASUS44 KOHX 280115
RWROHX
MIDDLE TENNESSEE HOURLY WEATHER ROUNDUP
NATIONAL WEATHER SERVICE NASHVILLE TN
800 PM CDT WED AUG 27 2014

NOTE: "FAIR" INDICATES FEW OR NO CLOUDS BELOW 12,000 FEET WITH
NO SIGNIFICANT WEATHER AND/OR OBSTRUCTIONS TO VISIBILITY.

* THESE REPORTS ARE NOT UNDER NWS QUALITY CONTROL AND MAY NOT
  REPORT WEATHER SUCH AS PRECIPITATION AND FOG.


TNZ005>011-023>034-057-059-062>066-078-080-280200
...NORTHERN MIDDLE TENNESSEE...

CITY           SKY/WX    TMP DP  RH WIND       PRES   REMARKS
CLARKSVILLE    MOCLDY    82  72  71 CALM      30.04R
CROSSVILLE     CLEAR     72  65  78 CALM      30.12R
GALLATIN         N/A     82  74  77 CALM      30.05R
DICKSON        PTCLDY    79  73  83 CALM      30.05R
LEBANON        CLEAR     81  71  71 CALM      30.03R
LIVINGSTON     CLEAR     77  68  73 CALM      30.09
NASHVILLE      PTCLDY    83  69  62 E3        30.05R
WEST NASHVILLE   N/A     84  70  61 CALM      30.03R
PORTLAND       CLEAR     77  72  83 CALM      30.05
SMYRNA         CLEAR     80  71  74 CALM      30.05R
SPARTA         CLEAR     75  72  88 CALM      30.07R
$$
TNZ056-058-060-061-075>077-079-093>097-280200
...SOUTHERN MIDDLE TENNESSEE...

CITY           SKY/WX    TMP DP  RH WIND       PRES   REMARKS
COLUMBIA       PTCLDY    81  75  83 CALM      30.03R
FAYETTEVILLE   CLEAR     79  66  65 CALM      30.05R
LEWISBURG      CLEAR     76  69  79 CALM      30.04R
MCMINNVILLE    CLEAR     75  73  94 CALM      30.07R
MURFREESBORO   CLEAR     83  68  60 CALM      30.03R
SHELBYVILLE    CLEAR     75  70  83 CALM      30.06R
TULLAHOMA      CLEAR     75  64  69 CALM      30.07R
WINCHESTER     CLEAR     75  68  78 CALM      30.05S
$$


...KEY TO REMARKS...
VSB - VISIBILITY IN MILES
WCI - WIND CHILL INDEX
HX  - HEAT INDEX




USA.gov is the U.S. government's official web portal to all federal, state and local government web resources and services.